Weather History for KPYX - February, 2014

Change the Weather History Date:

Monday, February 10, 2014

  Actual Average Record
Temperature  
Mean Temperature 16 °F -  
Max Temperature 19 °F 51 °F 82 °F (1976)
Min Temperature 13 °F 18 °F -5 °F (1982)
Degree Days  
Heating Degree Days 49    
Moisture  
Dew Point 14 °F    
Average Humidity 90    
Maximum Humidity 93    
Minimum Humidity 87    
Precipitation  
Precipitation 0.00 in - - ()
Sea Level Pressure  
Sea Level Pressure 30.24 in    
Wind  
Wind Speed 1 mph (NE)    
Max Wind Speed 5 mph    
Max Gust Speed -    
Visibility 8 miles    
Events      
Averages and records for this station are not official NWS values.
T = Trace of Precipitation, MM = Missing Value Source: NWS Daily Summary

Daily Weather History Graph

Daily Weather History Graph

Search for Another Location

Airport or City:

Trip Planner

Search our weather history database for the weather conditions in past years. The results will help you decide how hot, cold, wet, or windy it might be!

Date:

Astronomy

Feb. 10, 2014 Rise Set
Actual Time 7:36 AM CST 6:18 PM CST
Civil Twilight 7:09 AM CST 6:45 PM CST
Nautical Twilight 6:39 AM CST 7:15 PM CST
Astronomical Twilight 6:09 AM CST 7:45 PM CST
Moon 2:52 PM CST (2/10) 4:27 AM CST (2/10)
Length of Visible Light 11h 35m
Length of Day
10h 42m
Waxing Gibbous, 85% of the Moon is Illuminated
Feb 10
Waxing Gibbous
Feb 14
Full
Feb 22
Last Quarter
Mar 1
New
Mar 8
First Quarter

Hourly Weather History & Observations

Time (CST) Temp. Windchill Dew Point Humidity Pressure Visibility Wind Dir Wind Speed Gust Speed Precip Events Conditions
12:15 AM 17.2 °F - 15.4 °F 93% 30.23 in 2.0 mi Calm Calm - N/A   Overcast
12:35 AM 16.7 °F 11.2 °F 15.1 °F 93% 30.22 in 3.0 mi NE 3.5 mph - N/A   Overcast
12:55 AM 16.7 °F - 14.9 °F 93% 30.22 in 3.0 mi Calm Calm - N/A   Overcast
1:15 AM 16.7 °F - 14.9 °F 93% 30.23 in 4.0 mi Calm Calm - N/A   Overcast
1:35 AM 16.7 °F - 14.9 °F 93% 30.24 in 5.0 mi Calm Calm - N/A   Overcast
1:55 AM 16.5 °F 9.4 °F 14.7 °F 93% 30.24 in 4.0 mi North 4.6 mph - N/A   Overcast
2:15 AM 16.3 °F - 14.5 °F 93% 30.25 in 4.0 mi Calm Calm - N/A   Overcast
2:35 AM 16.2 °F - 14.4 °F 93% 30.24 in 4.0 mi Calm Calm - N/A   Overcast
2:55 AM 16.2 °F 10.6 °F 14.4 °F 93% 30.25 in 3.0 mi North 3.5 mph - N/A   Overcast
3:15 AM 15.8 °F - 14.0 °F 93% 30.25 in 4.0 mi Calm Calm - N/A   Overcast
3:35 AM 15.8 °F - 13.8 °F 92% 30.25 in 4.0 mi Calm Calm - N/A   Overcast
3:55 AM 15.4 °F - 13.6 °F 93% 30.24 in 4.0 mi Calm Calm - N/A   Overcast
4:15 AM 15.4 °F 9.8 °F 13.5 °F 92% 30.23 in 2.5 mi NNE 3.5 mph - N/A   Overcast
4:35 AM 14.9 °F 9.2 °F 13.1 °F 93% 30.24 in 3.0 mi NE 3.5 mph - N/A   Overcast
4:55 AM 14.7 °F 9.0 °F 12.7 °F 92% 30.24 in 2.5 mi NE 3.5 mph - N/A   Overcast
5:15 AM 14.5 °F 8.8 °F 12.4 °F 91% 30.24 in 7.0 mi NE 3.5 mph - N/A   Overcast
5:35 AM 14.0 °F - 11.8 °F 91% 30.24 in 10.0 mi Calm Calm - N/A   Overcast
5:55 AM 14.0 °F - 12.0 °F 92% 30.24 in 10.0 mi Calm Calm - N/A   Overcast
6:15 AM 14.4 °F - 12.2 °F 91% 30.24 in 7.0 mi Calm Calm - N/A   Overcast
6:35 AM 14.7 °F 9.0 °F 12.7 °F 92% 30.24 in 7.0 mi NNE 3.5 mph - N/A   Overcast
6:55 AM 14.7 °F - 12.7 °F 92% 30.25 in 7.0 mi Calm Calm - N/A   Overcast
7:15 AM 14.5 °F - 12.6 °F 92% 30.26 in 7.0 mi Calm Calm - N/A   Overcast
7:35 AM 14.0 °F - 12.0 °F 92% 30.25 in 7.0 mi Calm Calm - N/A   Overcast
7:55 AM 13.8 °F - 11.7 °F 91% 30.26 in 10.0 mi Calm Calm - N/A   Overcast
8:15 AM 13.3 °F 5.6 °F 11.1 °F 91% 30.26 in 7.0 mi NE 4.6 mph - N/A   Overcast
8:35 AM 13.1 °F 5.4 °F 10.9 °F 91% 30.26 in 10.0 mi NE 4.6 mph - N/A   Overcast
8:55 AM 13.1 °F 7.1 °F 10.9 °F 91% 30.27 in 10.0 mi NE 3.5 mph - N/A   Overcast
9:15 AM 13.6 °F 7.7 °F 11.3 °F 90% 30.26 in 10.0 mi NE 3.5 mph - N/A   Overcast
9:35 AM 13.6 °F 7.7 °F 11.5 °F 91% 30.25 in 10.0 mi NE 3.5 mph - N/A   Overcast
9:55 AM 13.8 °F 8.0 °F 11.7 °F 91% 30.24 in 10.0 mi NE 3.5 mph - N/A   Overcast
10:15 AM 14.2 °F - 12.2 °F 92% 30.26 in 10.0 mi Calm Calm - N/A   Overcast
10:35 AM 14.7 °F - 12.4 °F 90% 30.26 in 10.0 mi Calm Calm - N/A   Overcast
10:55 AM 14.7 °F - 12.6 °F 91% 30.27 in 10.0 mi Calm Calm - N/A   Overcast
11:15 AM 14.7 °F - 12.7 °F 92% 30.26 in 10.0 mi Calm Calm - N/A   Overcast
11:35 AM 15.4 °F - 13.5 °F 92% 30.26 in 3.0 mi Calm Calm - N/A   Overcast
11:55 AM 15.4 °F - 13.5 °F 92% 30.25 in 7.0 mi Calm Calm - N/A   Overcast
12:15 PM 16.3 °F - 14.5 °F 93% 30.25 in 4.0 mi Calm Calm - N/A   Overcast
12:35 PM 16.5 °F - 14.4 °F 91% 30.25 in 7.0 mi Calm Calm - N/A   Overcast
12:55 PM 17.4 °F - 15.4 °F 92% 30.23 in 3.0 mi Calm Calm - N/A   Overcast
1:15 PM 17.8 °F - 15.4 °F 91% 30.23 in 4.0 mi Calm Calm - N/A   Overcast
1:35 PM 18.7 °F - 16.3 °F 91% 30.21 in 10.0 mi Calm Calm - N/A   Overcast
1:55 PM 19.2 °F - 16.5 °F 89% 30.21 in 10.0 mi Calm Calm - N/A   Overcast
2:15 PM 18.7 °F - 16.0 °F 89% 30.19 in 10.0 mi Calm Calm - N/A   Overcast
2:35 PM 19.2 °F - 16.2 °F 88% 30.18 in 10.0 mi Calm Calm - N/A   Overcast
2:55 PM 18.9 °F - 15.6 °F 87% 30.18 in 10.0 mi Calm Calm - N/A   Overcast
3:15 PM 18.9 °F - 15.8 °F 88% 30.19 in 10.0 mi Calm Calm - N/A   Overcast
3:35 PM 19.4 °F - 16.3 °F 88% 30.17 in 10.0 mi Calm Calm - N/A   Overcast
3:55 PM 19.2 °F - 16.2 °F 88% 30.17 in 10.0 mi Calm Calm - N/A   Overcast
4:15 PM 19.6 °F - 16.5 °F 88% 30.16 in 10.0 mi Calm Calm - N/A   Overcast
4:35 PM 19.4 °F 14.3 °F 16.2 °F 87% 30.17 in 10.0 mi ENE 3.5 mph - N/A   Overcast
4:55 PM 19.4 °F 14.3 °F 16.2 °F 87% 30.17 in 10.0 mi NE 3.5 mph - N/A   Overcast
5:15 PM 19.0 °F 13.9 °F 16.0 °F 88% 30.19 in 10.0 mi NE 3.5 mph - N/A   Overcast
5:35 PM 18.9 °F 13.7 °F 15.8 °F 88% 30.20 in 10.0 mi NE 3.5 mph - N/A   Overcast
5:55 PM 18.3 °F - 15.6 °F 89% 30.19 in 10.0 mi Calm Calm - N/A   Overcast
6:15 PM 18.0 °F 12.7 °F 15.1 °F 88% 30.20 in 10.0 mi ENE 3.5 mph - N/A   Overcast
6:35 PM 17.6 °F 12.3 °F 14.9 °F 89% 30.21 in 10.0 mi ENE 3.5 mph - N/A   Overcast
6:55 PM 17.2 °F - 14.7 °F 90% 30.23 in 5.0 mi Calm Calm - N/A   Overcast
7:15 PM 16.7 °F - 14.2 °F 90% 30.24 in 10.0 mi Calm Calm - N/A   Overcast
7:35 PM 16.7 °F - 14.0 °F 89% 30.24 in 10.0 mi Calm Calm - N/A   Overcast
7:55 PM 16.7 °F - 14.0 °F 89% 30.25 in 10.0 mi Calm Calm - N/A   Overcast
8:15 PM 16.5 °F - 13.6 °F 88% 30.25 in 10.0 mi Calm Calm - N/A   Overcast
8:35 PM 16.3 °F - 13.6 °F 89% 30.25 in 10.0 mi Calm Calm - N/A   Overcast
8:55 PM 16.3 °F - 13.5 °F 88% 30.26 in 10.0 mi Calm Calm - N/A   Overcast
9:15 PM 16.5 °F - 13.6 °F 88% 30.27 in 10.0 mi Calm Calm - N/A   Overcast
9:35 PM 16.7 °F - 13.8 °F 88% 30.28 in 10.0 mi Calm Calm - N/A   Overcast
9:55 PM 16.7 °F - 13.8 °F 88% 30.28 in 10.0 mi Calm Calm - N/A   Overcast
10:15 PM 16.7 °F - 13.6 °F 88% 30.28 in 10.0 mi Calm Calm - N/A   Overcast
10:35 PM 16.5 °F - 13.5 °F 88% 30.28 in 10.0 mi Calm Calm - N/A   Overcast
10:55 PM 16.5 °F - 13.3 °F 87% 30.28 in 10.0 mi Calm Calm - N/A   Overcast
11:15 PM 16.3 °F - 13.3 °F 88% 30.28 in 10.0 mi Calm Calm - N/A   Overcast
11:35 PM 16.2 °F - 13.1 °F 88% 30.28 in 10.0 mi Calm Calm - N/A   Overcast
11:55 PM 16.3 °F - 13.1 °F 87% 30.27 in 10.0 mi Calm Calm - N/A   Overcast